| time (UTC) | temp F | wind direction | speed MPH | gust MPH | rain 1hr in | rain 24hr in | rain mn in | humidity % | barometer mb |
| 20260902135705 | 74 | 272 | 5.0 | 16.0 | 0.00 | 0.00 | 0.00 | 49 | 1019.6 |
| 20260902135205 | 75 | 269 | 8.0 | 16.0 | 0.00 | 0.00 | 0.00 | 48 | 1019.6 |
| 20260902134705 | 74 | 229 | 9.0 | 16.0 | 0.00 | 0.00 | 0.00 | 50 | 1019.7 |
| 20260902134205 | 74 | 285 | 7.0 | 12.0 | 0.00 | 0.00 | 0.00 | 50 | 1019.7 |
| 20260902133706 | 74 | 259 | 5.0 | 12.0 | 0.00 | 0.00 | 0.00 | 50 | 1019.7 |
| 20260902132705 | 73 | 245 | 5.0 | 11.0 | 0.00 | 0.00 | 0.00 | 52 | 1019.7 |
| 20260902132206 | 73 | 238 | 6.0 | 12.0 | 0.00 | 0.00 | 0.00 | 50 | 1019.7 |
| 20260902131705 | 75 | 224 | 6.0 | 12.0 | 0.00 | 0.00 | 0.00 | 48 | 1019.8 |
| 20260902131207 | 75 | 214 | 7.0 | 14.0 | 0.00 | 0.00 | 0.00 | 51 | 1019.8 |
| 20260902130705 | 75 | 248 | 7.0 | 15.0 | 0.00 | 0.00 | 0.00 | 48 | 1019.8 |
| 20260902125204 | 73 | 238 | 7.0 | 11.0 | 0.00 | 0.00 | 0.00 | 50 | 1019.9 |
| 20260902124705 | 73 | 269 | 5.0 | 11.0 | 0.00 | 0.00 | 0.00 | 53 | 1019.9 |
| 20260902124205 | 72 | 269 | 6.0 | 11.0 | 0.00 | 0.00 | 0.00 | 52 | 1019.9 |
| 20260902123705 | 72 | 264 | 6.0 | 13.0 | 0.00 | 0.00 | 0.00 | 52 | 1020.0 |
| 20260902123206 | 72 | 255 | 6.0 | 13.0 | 0.00 | 0.00 | 0.00 | 53 | 1020.1 |
| 20260902122706 | 72 | 255 | 6.0 | 13.0 | 0.00 | 0.00 | 0.00 | 53 | 1020.1 |
| 20260902122206 | 72 | 245 | 5.0 | 11.0 | 0.00 | 0.00 | 0.00 | 55 | 1020.0 |
| 20260902121206 | 72 | 276 | 4.0 | 10.0 | 0.00 | 0.00 | 0.00 | 54 | 1020.1 |
| 20260902120205 | 72 | 240 | 4.0 | 9.0 | 0.00 | 0.00 | 0.00 | 54 | 1020.0 |
| 20260902115205 | 72 | 248 | 4.0 | 16.0 | 0.00 | 0.00 | 0.00 | 55 | 1020.0 |
| 20260902114705 | 72 | 325 | 6.0 | 16.0 | 0.00 | 0.00 | 0.00 | 55 | 1020.0 |
| 20260902114205 | 73 | 229 | 6.0 | 16.0 | 0.00 | 0.00 | 0.00 | 53 | 1020.0 |
| 20260902113705 | 73 | 262 | 4.0 | 8.0 | 0.00 | 0.00 | 0.00 | 56 | 1020.1 |
| 20260902113205 | 73 | 272 | 3.0 | 6.0 | 0.00 | 0.00 | 0.00 | 58 | 1020.2 |
| 20260902112205 | 72 | 233 | 3.0 | 10.0 | 0.00 | 0.00 | 0.00 | 56 | 1020.3 |
| 20260902111704 | 72 | 276 | 4.0 | 10.0 | 0.00 | 0.00 | 0.00 | 55 | 1020.4 |
| 20260902110705 | 72 | 212 | 3.0 | 8.0 | 0.00 | 0.00 | 0.00 | 58 | 1020.6 |
| 20260902110205 | 71 | 258 | 4.0 | 8.0 | 0.00 | 0.00 | 0.00 | 57 | 1020.5 |
| 20260902105705 | 71 | 277 | 5.0 | 8.0 | 0.00 | 0.00 | 0.00 | 57 | 1020.6 |
| 20260902105206 | 72 | 227 | 4.0 | 7.0 | 0.00 | 0.00 | 0.00 | 56 | 1020.6 |
| 20260902104705 | 73 | 262 | 3.0 | 6.0 | 0.00 | 0.00 | 0.00 | 55 | 1020.6 |
| 20260902104205 | 72 | 252 | 3.0 | 6.0 | 0.00 | 0.01 | 0.00 | 57 | 1020.6 |
| 20260902103706 | 71 | 269 | 3.0 | 6.0 | 0.00 | 0.01 | 0.00 | 58 | 1020.6 |
| 20260902103205 | 71 | 190 | 3.0 | 8.0 | 0.00 | 0.01 | 0.00 | 58 | 1020.7 |
| 20260902102705 | 70 | 189 | 4.0 | 8.0 | 0.00 | 0.01 | 0.00 | 59 | 1020.8 |
| 20260902102206 | 69 | 222 | 3.0 | 6.0 | 0.00 | 0.01 | 0.00 | 61 | 1020.7 |
| 20260902101705 | 69 | 279 | 2.0 | 4.0 | 0.00 | 0.01 | 0.00 | 62 | 1020.8 |
| 20260902101205 | 68 | 212 | 2.0 | 4.0 | 0.00 | 0.01 | 0.00 | 64 | 1020.8 |
| 20260902100205 | 67 | 151 | 2.0 | 5.0 | 0.00 | 0.01 | 0.00 | 66 | 1020.9 |
| 20260902095206 | 67 | 205 | 3.0 | 5.0 | 0.00 | 0.01 | 0.00 | 66 | 1020.9 |
| 20260902094705 | 67 | 187 | 2.0 | 5.0 | 0.00 | 0.01 | 0.00 | 68 | 1020.9 |
| 20260902094205 | 66 | 208 | 1.0 | 4.0 | 0.00 | 0.01 | 0.00 | 70 | 1020.9 |
| 20260902093705 | 66 | 113 | 1.0 | 4.0 | 0.00 | 0.01 | 0.00 | 73 | 1021.1 |
| 20260902093205 | 65 | 114 | 2.0 | 4.0 | 0.00 | 0.01 | 0.00 | 73 | 1021.1 |
| 20260902092705 | 65 | 222 | 2.0 | 4.0 | 0.00 | 0.01 | 0.00 | 76 | 1021.2 |
| 20260902092206 | 64 | 222 | 2.0 | 3.0 | 0.00 | 0.01 | 0.00 | 74 | 1021.2 |
| 20260902091706 | 64 | 151 | 1.0 | 4.0 | 0.00 | 0.01 | 0.00 | 75 | 1021.3 |
| 20260902091204 | 62 | 135 | 2.0 | 4.0 | 0.00 | 0.01 | 0.00 | 76 | 1021.2 |
| 20260902090705 | 61 | 178 | 2.0 | 4.0 | 0.00 | 0.01 | 0.00 | 78 | 1021.2 |
| 20260902085705 | 60 | 222 | 2.0 | 3.0 | 0.00 | 0.01 | 0.00 | 83 | 1021.3 |
| 20260902085205 | 60 | 231 | 1.0 | 3.0 | 0.00 | 0.01 | 0.00 | 86 | 1021.2 |
| 20260902084705 | 59 | 202 | 1.0 | 3.0 | 0.00 | 0.01 | 0.00 | 87 | 1021.3 |
| 20260902084205 | 58 | 231 | 2.0 | 3.0 | 0.00 | 0.01 | 0.00 | 88 | 1021.3 |
| 20260902083705 | 58 | 295 | 2.0 | 3.0 | 0.00 | 0.01 | 0.00 | 88 | 1021.3 |
| 20260902083205 | 58 | 208 | 1.0 | 4.0 | 0.00 | 0.01 | 0.00 | 90 | 1021.2 |
| 20260902082734 | 57 | 160 | 1.0 | 4.0 | 0.00 | 0.01 | 0.00 | 90 | 1021.1 |
| 20260902082206 | 57 | 250 | 2.0 | 4.0 | 0.00 | 0.01 | 0.00 | 90 | 1021.1 |
| 20260902081206 | 57 | 269 | 2.0 | 4.0 | 0.00 | 0.01 | 0.00 | 91 | 1021.1 |
| 20260902080705 | 57 | 233 | 2.0 | 4.0 | 0.00 | 0.01 | 0.00 | 91 | 1021.1 |
| 20260902080206 | 56 | 245 | 2.0 | 4.0 | 0.00 | 0.01 | 0.00 | 91 | 1020.9 |
| 20260902075706 | 56 | 219 | 2.0 | 4.0 | 0.00 | 0.01 | 0.00 | 91 | 1021.1 |
| 20260902075205 | 56 | 236 | 1.0 | 2.0 | 0.00 | 0.01 | 0.00 | 91 | 1020.9 |
| 20260902074705 | 55 | 250 | 1.0 | 2.0 | 0.00 | 0.01 | 0.00 | 91 | 1020.7 |
| 20260902074205 | 55 | 240 | 1.0 | 2.0 | 0.00 | 0.01 | 0.00 | 91 | 1020.8 |
| 20260902073705 | 55 | 250 | 1.0 | 2.0 | 0.00 | 0.01 | 0.00 | 92 | 1020.7 |
| 20260902073205 | 55 | 222 | 1.0 | 2.0 | 0.00 | 0.01 | 0.00 | 92 | 1020.6 |
| 20260902072705 | 55 | 269 | 0.0 | 2.0 | 0.00 | 0.01 | 0.00 | 92 | 1020.6 |
| 20260902072206 | 54 | 46 | 1.0 | 2.0 | 0.00 | 0.01 | 0.00 | 92 | 1020.7 |
| 20260902071206 | 54 | 222 | 1.0 | 2.0 | 0.00 | 0.01 | 0.00 | 92 | 1020.9 |
| 20260902070705 | 54 | 231 | 1.0 | 2.0 | 0.00 | 0.01 | 0.00 | 92 | 1020.9 |
| 20260902065706 | 53 | 178 | 1.0 | 2.0 | 0.00 | 0.01 | 0.00 | 91 | 1020.7 |
| 20260902065205 | 53 | 240 | 1.0 | 2.0 | 0.00 | 0.01 | 0.00 | 91 | 1020.7 |
| 20260902064705 | 53 | 215 | 1.0 | 2.0 | 0.00 | 0.01 | 0.00 | 91 | 1020.7 |
| 20260902064205 | 53 | 178 | 1.0 | 2.0 | 0.00 | 0.01 | 0.00 | 91 | 1020.7 |
| 20260902063205 | 52 | 229 | 1.0 | 3.0 | 0.00 | 0.01 | 0.00 | 91 | 1020.8 |
| 20260902062205 | 52 | 201 | 1.0 | 3.0 | 0.00 | 0.01 | 0.00 | 91 | 1020.7 |
| 20260902061706 | 52 | 253 | 1.0 | 3.0 | 0.00 | 0.01 | 0.00 | 91 | 1021.1 |
| 20260902060705 | 52 | 222 | 1.0 | 2.0 | 0.00 | 0.01 | 0.00 | 90 | 1020.8 |
| 20260902060207 | 52 | 201 | 2.0 | 3.0 | 0.00 | 0.01 | 0.00 | 90 | 1020.8 |
| 20260902055705 | 52 | 222 | 1.0 | 3.0 | 0.00 | 0.01 | 0.00 | 90 | 1020.8 |
| 20260902054706 | 51 | 238 | 1.0 | 2.0 | 0.00 | 0.01 | 0.00 | 90 | 1020.8 |
| 20260902054205 | 51 | 215 | 0.0 | 2.0 | 0.00 | 0.01 | 0.00 | 90 | 1020.7 |
| 20260902052706 | 51 | 1 | 1.0 | 3.0 | 0.00 | 0.01 | 0.00 | 90 | 1020.7 |
| 20260902052205 | 51 | 46 | 1.0 | 3.0 | 0.00 | 0.01 | 0.00 | 89 | 1020.6 |
| 20260902051705 | 51 | 108 | 1.0 | 3.0 | 0.00 | 0.01 | 0.00 | 89 | 1020.5 |
| 20260902051205 | 50 | 79 | 0.0 | 2.0 | 0.00 | 0.01 | 0.00 | 89 | 1020.6 |
| 20260902050705 | 50 | 46 | 1.0 | 2.0 | 0.00 | 0.01 | 0.00 | 89 | 1020.8 |
| 20260902045705 | 50 | 89 | 1.0 | 1.0 | 0.00 | 0.01 | 0.00 | 89 | 1020.7 |
| 20260902045205 | 50 | 117 | 0.0 | 1.0 | 0.00 | 0.01 | 0.00 | 89 | 1020.8 |
| 20260902044206 | 50 | 205 | 0.0 | 2.0 | 0.00 | 0.01 | 0.00 | 89 | 1020.8 |
| 20260902043205 | 50 | 46 | 0.0 | 2.0 | 0.00 | 0.01 | 0.00 | 88 | 1020.7 |
| 20260902042205 | 50 | 46 | 1.0 | 2.0 | 0.00 | 0.01 | 0.00 | 88 | 1020.7 |
| 20260902041705 | 50 | 28 | 0.0 | 2.0 | 0.00 | 0.01 | 0.00 | 88 | 1020.7 |
| 20260902041205 | 50 | 46 | 1.0 | 2.0 | 0.00 | 0.01 | 0.00 | 88 | 1020.7 |
| 20260902040705 | 50 | 28 | 1.0 | 2.0 | 0.00 | 0.01 | 0.00 | 88 | 1020.7 |
| 20260902040205 | 50 | 108 | 0.0 | 2.0 | 0.00 | 0.01 | 0.00 | 88 | 1020.8 |
| 20260902035705 | 50 | 28 | 0.0 | 2.0 | 0.00 | 0.01 | 0.00 | 88 | 1020.7 |
| 20260902034735 | 50 | 117 | 0.0 | 2.0 | 0.00 | 0.01 | 0.00 | 88 | 1020.7 |
| 20260902034206 | 51 | 160 | 0.0 | 2.0 | 0.00 | 0.01 | 0.00 | 88 | 1020.7 |
| 20260902033705 | 51 | 46 | 1.0 | 2.0 | 0.00 | 0.01 | 0.00 | 88 | 1020.7 |
| 20260902033206 | 51 | 46 | 1.0 | 2.0 | 0.00 | 0.01 | 0.00 | 88 | 1020.7 |
| 20260902032705 | 51 | 1 | 0.0 | 1.0 | 0.00 | 0.01 | 0.00 | 88 | 1020.8 |
| 20260902032208 | 51 | 117 | 0.0 | 2.0 | 0.00 | 0.01 | 0.00 | 87 | 1020.7 |
| 20260902031206 | 51 | 178 | 1.0 | 2.0 | 0.00 | 0.01 | 0.00 | 88 | 1020.7 |
| 20260902030705 | 51 | 46 | 1.0 | 2.0 | 0.00 | 0.01 | 0.00 | 87 | 1020.6 |
| 20260902030205 | 51 | 46 | 1.0 | 2.0 | 0.00 | 0.01 | 0.00 | 87 | 1020.7 |
| 20260902025705 | 51 | 46 | 1.0 | 2.0 | 0.00 | 0.01 | 0.00 | 87 | 1020.7 |
| 20260902025206 | 51 | 58 | 1.0 | 1.0 | 0.00 | 0.01 | 0.00 | 87 | 1020.7 |
| 20260902024705 | 51 | 124 | 0.0 | 2.0 | 0.00 | 0.01 | 0.00 | 87 | 1020.7 |
| 20260902023705 | 51 | 89 | 0.0 | 2.0 | 0.00 | 0.01 | 0.00 | 87 | 1020.7 |
| 20260902023206 | 51 | 20 | 0.0 | 1.0 | 0.00 | 0.01 | 0.00 | 87 | 1020.8 |
| 20260902022206 | 52 | 222 | 0.0 | 2.0 | 0.00 | 0.01 | 0.00 | 87 | 1020.8 |
| 20260902021706 | 52 | 205 | 0.0 | 2.0 | 0.00 | 0.01 | 0.00 | 87 | 1020.6 |
| 20260902021206 | 52 | 117 | 0.0 | 2.0 | 0.00 | 0.01 | 0.00 | 87 | 1020.6 |
| 20260902020206 | 52 | 89 | 1.0 | 2.0 | 0.00 | 0.01 | 0.00 | 86 | 1020.7 |
| 20260902015704 | 52 | 104 | 0.0 | 1.0 | 0.00 | 0.01 | 0.00 | 86 | 1020.6 |
| 20260902015206 | 52 | 72 | 0.0 | 1.0 | 0.00 | 0.01 | 0.00 | 86 | 1020.6 |
| 20260902014707 | 52 | 269 | 0.0 | 2.0 | 0.00 | 0.01 | 0.00 | 86 | 1020.6 |
| 20260902014206 | 52 | 269 | 1.0 | 2.0 | 0.00 | 0.01 | 0.00 | 86 | 1020.6 |
| 20260902013706 | 53 | 63 | 1.0 | 2.0 | 0.00 | 0.01 | 0.00 | 86 | 1020.5 |
| 20260902013205 | 53 | 63 | 1.0 | 2.0 | 0.00 | 0.01 | 0.00 | 86 | 1020.6 |
| 20260902012204 | 53 | 56 | 1.0 | 2.0 | 0.00 | 0.01 | 0.00 | 86 | 1020.6 |
| 20260902011205 | 53 | 46 | 0.0 | 1.0 | 0.00 | 0.01 | 0.00 | 85 | 1020.7 |
| 20260902010705 | 53 | 269 | 0.0 | 1.0 | 0.00 | 0.01 | 0.00 | 85 | 1020.7 |
| 20260902010206 | 53 | 63 | 0.0 | 0.0 | 0.00 | 0.01 | 0.00 | 85 | 1020.8 |
| 20260902004705 | 53 | 46 | 1.0 | 2.0 | 0.00 | 0.01 | 0.00 | 85 | 1020.7 |
| 20260902004206 | 54 | 89 | 1.0 | 3.0 | 0.00 | 0.01 | 0.00 | 85 | 1020.7 |
| 20260902003205 | 54 | 89 | 1.0 | 3.0 | 0.00 | 0.01 | 0.00 | 84 | 1020.8 |
| 20260902002223 | 54 | 35 | 1.0 | 2.0 | 0.00 | 0.01 | 0.00 | 84 | 1020.9 |
| 20260902001705 | 54 | 112 | 1.0 | 2.0 | 0.00 | 0.01 | 0.00 | 84 | 1021.1 |
| 20260902001205 | 54 | 222 | 0.0 | 2.0 | 0.00 | 0.01 | 0.00 | 84 | 1021.1 |
| 20260902000705 | 54 | 117 | 0.0 | 2.0 | 0.00 | 0.01 | 0.00 | 84 | 1021.2 |
| 20260902000205 | 55 | 269 | 1.0 | 2.0 | 0.00 | 0.01 | 0.01 | 84 | 1021.2 |
| 20260901235706 | 55 | 46 | 1.0 | 2.0 | 0.00 | 0.01 | 0.01 | 84 | 1021.2 |
| 20260901235206 | 55 | 63 | 1.0 | 2.0 | 0.00 | 0.01 | 0.01 | 84 | 1021.1 |
| 20260901234705 | 55 | 72 | 1.0 | 2.0 | 0.00 | 0.01 | 0.01 | 83 | 1021.1 |
| 20260901234206 | 55 | 15 | 1.0 | 2.0 | 0.00 | 0.01 | 0.01 | 83 | 1021.2 |
| 20260901233705 | 55 | 1 | 0.0 | 1.0 | 0.00 | 0.01 | 0.01 | 83 | 1021.3 |
| 20260901233206 | 55 | 324 | 0.0 | 2.0 | 0.00 | 0.01 | 0.01 | 83 | 1021.3 |
| 20260901232205 | 55 | 89 | 1.0 | 3.0 | 0.00 | 0.02 | 0.01 | 83 | 1021.2 |
| 20260901231705 | 55 | 89 | 1.0 | 3.0 | 0.00 | 0.02 | 0.01 | 82 | 1021.2 |
| 20260901231205 | 56 | 63 | 2.0 | 3.0 | 0.00 | 0.02 | 0.01 | 82 | 1021.1 |
| 20260901230705 | 56 | 84 | 2.0 | 3.0 | 0.00 | 0.02 | 0.01 | 82 | 1021.2 |
| 20260901230205 | 56 | 101 | 2.0 | 3.0 | 0.00 | 0.02 | 0.01 | 82 | 1021.2 |
| 20260901225705 | 56 | 89 | 1.0 | 3.0 | 0.00 | 0.02 | 0.01 | 82 | 1021.3 |
| 20260901224705 | 56 | 79 | 1.0 | 2.0 | 0.00 | 0.02 | 0.01 | 81 | 1021.3 |
| 20260901224205 | 56 | 101 | 0.0 | 2.0 | 0.00 | 0.02 | 0.01 | 81 | 1021.2 |
| 20260901223706 | 57 | 63 | 0.0 | 3.0 | 0.00 | 0.02 | 0.01 | 81 | 1021.1 |
| 20260901223206 | 57 | 240 | 1.0 | 3.0 | 0.00 | 0.02 | 0.01 | 81 | 1021.1 |
| 20260901222706 | 57 | 321 | 2.0 | 3.0 | 0.00 | 0.02 | 0.01 | 81 | 1020.9 |
| 20260901222223 | 57 | 28 | 1.0 | 3.0 | 0.00 | 0.02 | 0.01 | 80 | 1020.9 |
| 20260901221706 | 57 | 1 | 1.0 | 2.0 | 0.00 | 0.02 | 0.01 | 80 | 1021.1 |
| 20260901215705 | 58 | 63 | 0.0 | 2.0 | 0.00 | 0.02 | 0.01 | 79 | 1020.8 |
| 20260901215206 | 58 | 89 | 0.0 | 2.0 | 0.00 | 0.02 | 0.01 | 79 | 1020.8 |
| 20260901214725 | 58 | 89 | 0.0 | 2.0 | 0.00 | 0.02 | 0.01 | 79 | 1020.8 |
| 20260901213205 | 59 | 63 | 1.0 | 3.0 | 0.00 | 0.02 | 0.01 | 78 | 1020.7 |
| 20260901212722 | 59 | 63 | 1.0 | 3.0 | 0.00 | 0.02 | 0.01 | 78 | 1020.7 |
| 20260901212206 | 59 | 68 | 2.0 | 3.0 | 0.00 | 0.02 | 0.01 | 77 | 1020.7 |
| 20260901211705 | 59 | 56 | 2.0 | 3.0 | 0.00 | 0.02 | 0.01 | 78 | 1020.8 |
| 20260901211205 | 59 | 98 | 1.0 | 2.0 | 0.00 | 0.02 | 0.01 | 78 | 1020.7 |
| 20260901210706 | 60 | 89 | 1.0 | 2.0 | 0.00 | 0.02 | 0.01 | 77 | 1020.8 |
| 20260901205705 | 60 | 46 | 0.0 | 1.0 | 0.00 | 0.02 | 0.01 | 76 | 1020.7 |
| 20260901205205 | 60 | 63 | 0.0 | 1.0 | 0.00 | 0.02 | 0.01 | 76 | 1020.8 |
| 20260901204707 | 60 | 89 | 0.0 | 1.0 | 0.00 | 0.02 | 0.01 | 75 | 1020.7 |
| 20260901204205 | 61 | 46 | 0.0 | 1.0 | 0.00 | 0.02 | 0.01 | 75 | 1020.7 |
| 20260901203705 | 61 | 46 | 0.0 | 1.0 | 0.00 | 0.02 | 0.01 | 74 | 1020.7 |
| 20260901203205 | 61 | 46 | 0.0 | 1.0 | 0.00 | 0.07 | 0.01 | 74 | 1020.7 |
| 20260901202705 | 61 | 46 | 0.0 | 2.0 | 0.00 | 0.07 | 0.01 | 73 | 1020.7 |
| 20260901202206 | 62 | 89 | 0.0 | 2.0 | 0.00 | 0.07 | 0.01 | 73 | 1020.6 |
| 20260901201705 | 62 | 46 | 1.0 | 2.0 | 0.00 | 0.07 | 0.01 | 72 | 1020.7 |
| 20260901201205 | 62 | 56 | 1.0 | 2.0 | 0.00 | 0.07 | 0.01 | 72 | 1020.6 |
| 20260901200705 | 62 | 56 | 1.0 | 2.0 | 0.00 | 0.07 | 0.01 | 71 | 1020.6 |
| 20260901200205 | 62 | 89 | 0.0 | 2.0 | 0.00 | 0.07 | 0.01 | 71 | 1020.6 |
| 20260901195206 | 63 | 46 | 1.0 | 2.0 | 0.00 | 0.07 | 0.01 | 70 | 1020.6 |
| 20260901194705 | 63 | 63 | 0.0 | 1.0 | 0.00 | 0.07 | 0.01 | 70 | 1020.6 |
| 20260901194205 | 64 | 72 | 0.0 | 1.0 | 0.00 | 0.07 | 0.01 | 69 | 1020.7 |
| 20260901193705 | 64 | 89 | 0.0 | 1.0 | 0.00 | 0.07 | 0.01 | 68 | 1020.6 |
| 20260901193205 | 64 | 63 | 0.0 | 2.0 | 0.00 | 0.07 | 0.01 | 68 | 1020.7 |
| 20260901192705 | 64 | 269 | 0.0 | 2.0 | 0.00 | 0.09 | 0.01 | 67 | 1020.5 |
| 20260901192206 | 65 | 46 | 0.0 | 2.0 | 0.00 | 0.17 | 0.01 | 66 | 1020.5 |
| 20260901191705 | 65 | 89 | 1.0 | 2.0 | 0.00 | 0.20 | 0.01 | 65 | 1020.5 |
| 20260901191205 | 65 | 222 | 0.0 | 3.0 | 0.00 | 0.28 | 0.01 | 64 | 1020.4 |
| 20260901190706 | 66 | 89 | 1.0 | 3.0 | 0.00 | 0.28 | 0.01 | 64 | 1020.3 |
| 20260901190205 | 66 | 46 | 1.0 | 3.0 | 0.00 | 0.28 | 0.01 | 63 | 1020.3 |
| 20260901185706 | 66 | 1 | 2.0 | 2.0 | 0.00 | 0.28 | 0.01 | 62 | 1020.3 |
| 20260901185206 | 67 | 53 | 1.0 | 3.0 | 0.00 | 0.28 | 0.01 | 61 | 1020.2 |
| 20260901183707 | 67 | 74 | 1.0 | 2.0 | 0.00 | 0.28 | 0.01 | 59 | 1020.0 |
| 20260901183205 | 68 | 46 | 0.0 | 1.0 | 0.00 | 0.29 | 0.01 | 59 | 1020.0 |
| 20260901182705 | 68 | 124 | 0.0 | 1.0 | 0.00 | 0.29 | 0.01 | 58 | 1020.0 |
| 20260901182205 | 68 | 89 | 0.0 | 2.0 | 0.00 | 0.29 | 0.01 | 57 | 1020.0 |
| 20260901181204 | 69 | 46 | 1.0 | 2.0 | 0.00 | 0.29 | 0.01 | 57 | 1020.0 |
| 20260901180732 | 69 | 314 | 1.0 | 4.0 | 0.00 | 0.29 | 0.01 | 57 | 1020.0 |
| 20260901180205 | 69 | 286 | 1.0 | 6.0 | 0.00 | 0.29 | 0.01 | 57 | 1019.9 |
| 20260901175705 | 69 | 269 | 2.0 | 6.0 | 0.00 | 0.29 | 0.01 | 56 | 1019.9 |
| 20260901175206 | 69 | 240 | 3.0 | 7.0 | 0.00 | 0.29 | 0.01 | 56 | 1020.0 |
| 20260901174705 | 69 | 255 | 3.0 | 7.0 | 0.00 | 0.29 | 0.01 | 56 | 1019.9 |
| 20260901174206 | 69 | 257 | 4.0 | 8.0 | 0.00 | 0.29 | 0.01 | 56 | 1019.9 |
| 20260901173705 | 69 | 259 | 4.0 | 8.0 | 0.00 | 0.29 | 0.01 | 55 | 1020.0 |
| 20260901173206 | 70 | 229 | 4.0 | 11.0 | 0.00 | 0.30 | 0.01 | 55 | 1019.9 |
| 20260901172723 | 70 | 259 | 5.0 | 12.0 | 0.00 | 0.30 | 0.01 | 54 | 1019.9 |
| 20260901172205 | 70 | 269 | 7.0 | 14.0 | 0.00 | 0.30 | 0.01 | 53 | 1019.9 |
| 20260901171705 | 70 | 276 | 7.0 | 14.0 | 0.00 | 0.30 | 0.01 | 53 | 1020.0 |
| 20260901171228 | 71 | 252 | 8.0 | 14.0 | 0.00 | 0.30 | 0.01 | 52 | 1020.0 |
| 20260901170705 | 71 | 276 | 8.0 | 14.0 | 0.00 | 0.30 | 0.01 | 52 | 1020.0 |
| 20260901170221 | 71 | 252 | 8.0 | 13.0 | 0.00 | 0.30 | 0.01 | 51 | 1019.9 |
| 20260901165705 | 71 | 222 | 8.0 | 13.0 | 0.00 | 0.30 | 0.01 | 52 | 1019.9 |
| 20260901165206 | 71 | 271 | 7.0 | 13.0 | 0.00 | 0.30 | 0.01 | 52 | 1020.0 |
| 20260901164705 | 71 | 259 | 6.0 | 11.0 | 0.00 | 0.30 | 0.01 | 53 | 1020.0 |
| 20260901164205 | 71 | 222 | 6.0 | 12.0 | 0.00 | 0.30 | 0.01 | 52 | 1020.0 |
| 20260901163706 | 71 | 265 | 6.0 | 12.0 | 0.00 | 0.30 | 0.01 | 53 | 1020.0 |
| 20260901163205 | 71 | 229 | 6.0 | 12.0 | 0.00 | 0.30 | 0.01 | 53 | 1019.9 |
| 20260901162706 | 71 | 252 | 6.0 | 14.0 | 0.00 | 0.30 | 0.01 | 51 | 1019.9 |
| 20260901162206 | 72 | 240 | 6.0 | 14.0 | 0.00 | 0.30 | 0.01 | 50 | 1019.9 |
| 20260901161705 | 72 | 290 | 6.0 | 14.0 | 0.00 | 0.30 | 0.01 | 50 | 1019.9 |
| 20260901161205 | 73 | 245 | 6.0 | 13.0 | 0.00 | 0.30 | 0.01 | 49 | 1019.8 |
| 20260901160706 | 73 | 234 | 7.0 | 14.0 | 0.00 | 0.30 | 0.01 | 49 | 1019.8 |
| 20260901160206 | 73 | 236 | 6.0 | 14.0 | 0.00 | 0.30 | 0.01 | 49 | 1019.8 |
| 20260901155706 | 73 | 248 | 7.0 | 14.0 | 0.00 | 0.31 | 0.01 | 48 | 1019.8 |
| 20260901155206 | 73 | 257 | 7.0 | 16.0 | 0.00 | 0.32 | 0.01 | 47 | 1019.8 |
| 20260901154705 | 73 | 302 | 8.0 | 16.0 | 0.00 | 0.32 | 0.01 | 47 | 1019.9 |
| 20260901153705 | 74 | 229 | 8.0 | 16.0 | 0.00 | 0.32 | 0.01 | 46 | 1019.9 |
| 20260901153205 | 74 | 286 | 9.0 | 16.0 | 0.00 | 0.32 | 0.01 | 47 | 1019.9 |
| 20260901152705 | 73 | 250 | 10.0 | 16.0 | 0.00 | 0.32 | 0.01 | 48 | 1019.9 |
| 20260901152206 | 73 | 238 | 10.0 | 15.0 | 0.00 | 0.32 | 0.01 | 46 | 1019.9 |
| 20260901151206 | 74 | 226 | 9.0 | 16.0 | 0.00 | 0.32 | 0.01 | 44 | 1019.8 |
| 20260901150705 | 74 | 198 | 8.0 | 11.0 | 0.00 | 0.32 | 0.01 | 43 | 1019.8 |
| 20260901150205 | 75 | 245 | 6.0 | 12.0 | 0.00 | 0.32 | 0.01 | 48 | 1019.8 |
| 20260901145705 | 75 | 245 | 6.0 | 12.0 | 0.00 | 0.32 | 0.01 | 46 | 1019.8 |
| 20260901145206 | 74 | 252 | 7.0 | 12.0 | 0.00 | 0.32 | 0.01 | 47 | 1019.7 |
| 20260901144705 | 74 | 200 | 7.0 | 13.0 | 0.00 | 0.32 | 0.01 | 46 | 1019.7 |
| 20260901144205 | 74 | 255 | 7.0 | 13.0 | 0.00 | 0.32 | 0.01 | 48 | 1019.8 |
| 20260901143206 | 74 | 252 | 6.0 | 15.0 | 0.00 | 0.32 | 0.01 | 49 | 1019.8 |
| 20260901142705 | 73 | 276 | 7.0 | 16.0 | 0.00 | 0.32 | 0.01 | 49 | 1019.9 |
| 20260901142206 | 73 | 278 | 7.0 | 17.0 | 0.00 | 0.32 | 0.01 | 50 | 1020.0 |
| 20260901141705 | 73 | 243 | 8.0 | 17.0 | 0.00 | 0.32 | 0.01 | 49 | 1020.0 |
| 20260901141205 | 73 | 214 | 11.0 | 17.0 | 0.00 | 0.32 | 0.01 | 50 | 1020.1 |
| 20260901140705 | 73 | 243 | 11.0 | 14.0 | 0.00 | 0.32 | 0.01 | 47 | 1020.1 |